Tracking 31011 objects as of 11-Jul-2025
HD Live streaming from Space Station
objects crossing your sky now

FENGYUN 1C DEB

Track FENGYUN 1C DEB now!
10-day predictions


NORAD ID: 29897
Int'l Code: 1999-025GT
Perigee: 833.2 km
Apogee: 1,278.0 km
Inclination: 98.6 °
Period: 106.2 minutes
Semi major axis: 7426 km
RCS: 0.0153 m2 (small)
Launch date: May 10, 1999
Source: People's Republic of China (PRC)
Launch site: Taiyaun Space Center, China (TSC)

Note: This is SATELLITE DEBRIS
Your satellite tracking list
Your tracking list is empty




NASA's NSSDC Master Catalog

Two Line Element Set (TLE):
1 29897U 99025GT  25191.66267953  .00001127  00000-0  12346-2 0  9991
2 29897  98.6369  74.7013 0299479 181.5554 240.0643 13.56491522908373
Source of the keplerian elements: AFSPC